H1 CPF 2 NER 2026 3 22 9 081 01 glonass129 H2 1106402 9129 37868 2026 3 22 0 0 0 2026 3 25 23 45 0 900 1 1 0 0 0 1 H9 10 0 61121 0.00000 0 5619921.749 -15343238.626 19652199.829 10 0 61121 900.00000 0 6206289.744 -12902769.327 21170624.780 10 0 61121 1800.00000 0 7026830.247 -10360823.055 22280278.451 10 0 61121 2700.00000 0 8078016.445 -7786138.232 22959690.416 10 0 61121 3600.00000 0 9343848.575 -5246654.122 23195641.446 10 0 61121 4500.00000 0 10796361.369 -2806901.317 22983421.129 10 0 61121 5400.00000 0 12396643.125 -525541.470 22326928.754 10 0 61121 6300.00000 0 14096326.468 1546844.038 21238614.846 10 0 61121 7200.00000 0 15839491.573 3369626.370 19739263.152 10 0 61121 8100.00000 0 17564905.527 4913585.714 17857615.369 10 0 61121 9000.00000 0 19208507.226 6161891.608 15629843.523 10 0 61121 9900.00000 0 20706036.265 7110565.753 13098877.649 10 0 61121 10800.00000 0 21995697.457 7768406.960 10313599.278 10 0 61121 11700.00000 0 23020749.935 8156379.971 7327914.050 10 0 61121 12600.00000 0 23731911.835 8306492.293 4199719.654 10 0 61121 13500.00000 0 24089478.154 8260204.979 989787.922 10 0 61121 14400.00000 0 24065060.530 8066443.450 -2239417.658 10 0 61121 15300.00000 0 23642872.933 7779292.083 -5424965.720 10 0 61121 16200.00000 0 22820506.072 7455470.541 -8504697.277 10 0 61121 17100.00000 0 21609154.924 7151699.908 -11418456.738 10 0 61121 18000.00000 0 20033287.181 6922072.141 -14109287.691 10 0 61121 18900.00000 0 18129764.599 6815536.726 -16524567.892 10 0 61121 19800.00000 0 15946452.981 6873613.773 -18617059.156 10 0 61121 20700.00000 0 13540378.857 7128433.135 -20345849.554 10 0 61121 21600.00000 0 10975510.655 7601185.099 -21677167.851 10 0 61121 22500.00000 0 8320258.392 8301050.221 -22585053.040 10 0 61121 23400.00000 0 5644798.040 9224654.992 -23051865.149 10 0 61121 24300.00000 0 3018334.058 10356077.047 -23068627.150 10 0 61121 25200.00000 0 506415.812 11667399.747 -22635191.622 10 0 61121 26100.00000 0 -1831579.014 13119792.138 -21760229.627 10 0 61121 27000.00000 0 -3944688.689 14665067.701 -20461043.153 10 0 61121 27900.00000 0 -5792246.210 16247654.831 -18763206.172 10 0 61121 28800.00000 0 -7345315.395 17806894.558 -16700042.859 10 0 61121 29700.00000 0 -8587626.523 19279567.401 -14311954.859 10 0 61121 30600.00000 0 -9515975.213 20602541.860 -11645612.318 10 0 61121 31500.00000 0 -10140071.235 21715432.421 -8753026.110 10 0 61121 32400.00000 0 -10481847.220 22563155.103 -5690520.705 10 0 61121 33300.00000 0 -10574259.912 23098273.503 -2517628.882 10 0 61121 34200.00000 0 -10459637.642 23283037.677 704069.329 10 0 61121 35100.00000 0 -10187646.302 23091031.646 3912140.434 10 0 61121 36000.00000 0 -9812961.451 22508362.129 7044500.795 10 0 61121 36900.00000 0 -9392745.719 21534340.502 10040606.564 10 0 61121 37800.00000 0 -8984038.036 20181631.197 12842608.103 10 0 61121 38700.00000 0 -8641164.033 18475861.762 15396447.983 10 0 61121 39600.00000 0 -8413275.410 16454711.758 17652883.030 10 0 61121 40500.00000 0 -8342120.134 14166518.711 19568412.726 10 0 61121 41400.00000 0 -8460135.385 11668458.573 21106098.181 10 0 61121 42300.00000 0 -8788941.766 9024375.011 22236257.884 10 0 61121 43200.00000 0 -9338300.764 6302345.630 22937028.630 10 0 61121 44100.00000 0 -10105578.720 3572083.502 23194782.162 10 0 61121 45000.00000 0 -11075740.115 902278.910 23004390.244 10 0 61121 45900.00000 0 -12221871.685 -1642011.449 22369333.192 10 0 61121 46800.00000 0 -13506217.464 -4001822.197 21301649.114 10 0 61121 47700.00000 0 -14881684.054 -6126484.174 19821723.567 10 0 61121 48600.00000 0 -16293756.116 -7975486.419 17957921.804 10 0 61121 49500.00000 0 -17682744.841 -9519918.560 15746068.375 10 0 61121 50400.00000 0 -18986277.855 -10743433.404 13228781.641 10 0 61121 51300.00000 0 -20141928.156 -11642688.847 10454673.527 10 0 61121 52200.00000 0 -21089872.883 -12227249.313 7477427.696 10 0 61121 53100.00000 0 -21775470.302 -12518949.339 4354772.224 10 0 61121 54000.00000 0 -22151645.696 -12550744.547 1147365.452 10 0 61121 54900.00000 0 -22180983.847 -12365097.136 -2082383.848 10 0 61121 55800.00000 0 -21837437.316 -12011963.329 -5271538.757 10 0 61121 56700.00000 0 -21107575.462 -11546467.780 -8357874.227 10 0 61121 57600.00000 0 -19991318.297 -11026364.020 -11281109.145 10 0 61121 58500.00000 0 -18502121.229 -10509389.959 -13984104.383 10 0 61121 59400.00000 0 -16666600.357 -10050632.442 -16414001.325 10 0 61121 60300.00000 0 -14523612.194 -9700014.930 -18523276.399 10 0 61121 61200.00000 0 -12122825.482 -9500017.286 -20270688.983 10 0 61121 62100.00000 0 -9522844.820 -9483726.609 -21622102.453 10 0 61121 63000.00000 0 -6788965.262 -9673303.659 -22551161.114 10 0 61121 63900.00000 0 -3990653.000 -10078931.214 -23039808.991 10 0 61121 64800.00000 0 -1198858.824 -10698289.625 -23078640.180 10 0 61121 65700.00000 0 1516722.025 -11516581.816 -22667074.177 10 0 61121 66600.00000 0 4090328.014 -12507106.103 -21813353.487 10 0 61121 67500.00000 0 6462635.137 -13632351.512 -20534364.655 10 0 61121 68400.00000 0 8582981.914 -14845567.877 -18855287.593 10 0 61121 69300.00000 0 10411223.550 -16092742.750 -16809081.565 10 0 61121 70200.00000 0 11919139.447 -17314900.036 -14435819.575 10 0 61121 71100.00000 0 13091337.699 -18450621.954 -11781885.735 10 0 61121 72000.00000 0 13925621.732 -19438686.826 -8899052.892 10 0 61121 72900.00000 0 14432807.190 -20220710.909 -5843459.927 10 0 61121 73800.00000 0 14636000.352 -20743682.915 -2674509.793 10 0 61121 74700.00000 0 14569371.840 -20962284.960 546289.344 10 0 61121 75600.00000 0 14276480.211 -20840903.328 3756516.847 10 0 61121 76500.00000 0 13808218.380 -20355245.908 6894043.042 10 0 61121 77400.00000 0 13220470.887 -19493500.013 9898220.385 10 0 61121 78300.00000 0 12571581.340 -18256983.661 12711040.202 10 0 61121 79200.00000 0 11919736.423 -16660264.453 15278234.001 10 0 61121 80100.00000 0 11320375.584 -14730742.053 17550299.740 10 0 61121 81000.00000 0 10823733.750 -12507712.076 19483435.272 10 0 61121 81900.00000 0 10472618.398 -10040949.978 21040363.056 10 0 61121 82800.00000 0 10300512.396 -7388872.732 22191032.248 10 0 61121 83700.00000 0 10330080.502 -4616352.759 22913186.463 10 0 61121 84600.00000 0 10572140.970 -1792272.287 23192787.628 10 0 61121 85500.00000 0 11025144.933 1013083.323 23024288.575 10 0 61122 0.00000 0 11675185.716 3730688.091 22410749.315 10 0 61122 900.00000 0 12496539.343 6295387.815 21363793.784 10 0 61122 1800.00000 0 13452714.703 8648352.903 19903407.538 10 0 61122 2700.00000 0 14497973.050 10739276.623 18057577.374 10 0 61122 3600.00000 0 15579255.107 12528224.920 15861778.236 10 0 61122 4500.00000 0 16638437.915 13987062.538 13358314.564 10 0 61122 5400.00000 0 17614828.845 15100395.317 10595526.325 10 0 61122 6300.00000 0 18447793.484 15865988.127 7626872.781 10 0 61122 7200.00000 0 19079407.436 16294639.443 4509909.894 10 0 61122 8100.00000 0 19457019.912 16409516.135 1305179.983 10 0 61122 9000.00000 0 19535619.638 16244974.949 -1924965.398 10 0 61122 9900.00000 0 19279900.978 15844919.195 -5117586.205 10 0 61122 10800.00000 0 18665940.151 15260759.500 -8210393.607 10 0 61122 11700.00000 0 17682407.536 14549064.987 -11142983.002 10 0 61122 12600.00000 0 16331261.601 13769005.189 -13858034.341 10 0 61122 13500.00000 0 14627892.214 12979692.528 -16302454.118 10 0 61122 14400.00000 0 12600704.848 12237539.943 -18428434.588 10 0 61122 15300.00000 0 10290161.438 11593747.831 -20194407.392 10 0 61122 16200.00000 0 7747317.349 11092028.980 -21565871.275 10 0 61122 17100.00000 0 5031915.679 10766669.718 -22516076.426 10 0 61122 18000.00000 0 2210119.385 10641010.843 -23026551.290 10 0 61122 18900.00000 0 -648022.877 10726413.391 -23087461.336 10 0 61122 19800.00000 0 -3471269.992 11021753.089 -22697793.011 10 0 61122 20700.00000 0 -6189927.007 11513464.291 -21865360.028 10 0 61122 21600.00000 0 -8738513.949 12176130.324 -20606632.947 10 0 61122 22500.00000 0 -11058253.110 12973593.656 -18946396.721 10 0 61122 23400.00000 0 -13099271.307 13860537.031 -16917244.470 10 0 61122 24300.00000 0 -14822426.308 14784466.766 -14558918.999 10 0 61122 25200.00000 0 -16200682.994 15688012.561 -11917516.543 10 0 61122 26100.00000 0 -17219984.272 16511445.143 -9044569.873 10 0 61122 27000.00000 0 -17879583.396 17195304.305 -5996030.053 10 0 61122 27900.00000 0 -18191827.177 17683025.896 -2831167.862 10 0 61122 28800.00000 0 -18181402.607 17923456.963 388582.846 10 0 61122 29700.00000 0 -17884081.775 17873153.639 3600816.802 10 0 61122 30600.00000 0 -17345020.484 17498366.050 6743360.863 10 0 61122 31500.00000 0 -16616684.176 16776628.140 9755466.386 10 0 61122 32400.00000 0 -15756489.472 15697887.160 12578968.261 10 0 61122 33300.00000 0 -14824260.814 14265126.797 15159389.490 10 0 61122 34200.00000 0 -13879608.448 12494458.966 17446971.638 10 0 61122 35100.00000 0 -12979336.571 10414680.950 19397613.249 10 0 61122 36000.00000 0 -12174988.575 8066316.173 20973700.249 10 0 61122 36900.00000 0 -11510630.233 5500177.670 22144814.309 10 0 61122 37800.00000 0 -11020961.685 2775512.245 22888307.392 10 0 61122 38700.00000 0 -10729835.558 -42200.007 23189732.779 10 0 61122 39600.00000 0 -10649242.158 -2883702.372 23043125.109 10 0 61122 40500.00000 0 -10778803.794 -5678575.723 22451124.238 10 0 61122 41400.00000 0 -11105799.888 -8357905.019 21424939.959 10 0 61122 42300.00000 0 -11605723.077 -10856890.363 19984157.074 10 0 61122 43200.00000 0 -12243344.927 -13117296.561 18156382.729 10 0 61122 44100.00000 0 -12974248.962 -15089641.007 15976740.573 10 0 61122 45000.00000 0 -13746769.143 -16735029.507 13487218.978 10 0 61122 45900.00000 0 -14504254.650 -18026563.421 10735883.410 10 0 61122 46800.00000 0 -15187567.481 -18950258.414 7775965.845 10 0 61122 47700.00000 0 -15737708.699 -19505434.905 4664847.008 10 0 61122 48600.00000 0 -16098462.661 -19704562.016 1462949.883 10 0 61122 49500.00000 0 -16218946.712 -19572559.819 -1767434.625 10 0 61122 50400.00000 0 -16055956.816 -19145587.666 -4963366.815 10 0 61122 51300.00000 0 -15576007.351 -18469368.684 -8062497.536 10 0 61122 52200.00000 0 -14756975.753 -17597120.803 -11004302.115 10 0 61122 53100.00000 0 -13589279.139 -16587182.136 -13731282.834 10 0 61122 54000.00000 0 -12076529.982 -15500432.200 -16190114.347 10 0 61122 54900.00000 0 -10235640.275 -14397619.713 -18332707.456 10 0 61122 55800.00000 0 -8096367.583 -13336712.022 -20117168.365 10 0 61122 56700.00000 0 -5700320.526 -12370380.388 -21508632.961 10 0 61122 57600.00000 0 -3099464.820 -11543729.389 -22479958.515 10 0 61122 58500.00000 0 -354192.545 -10892367.969 -23012258.467 10 0 61122 59400.00000 0 2468963.811 -10440904.578 -23095269.613 10 0 61122 60300.00000 0 5299875.902 -10201930.167 -22727544.745 10 0 61122 61200.00000 0 8067515.126 -10175531.484 -21916467.678 10 0 61122 62100.00000 0 10702685.655 -10349353.983 -20678091.438 10 0 61122 63000.00000 0 13140680.122 -10699209.888 -19036804.101 10 0 61122 63900.00000 0 15323746.932 -11190203.539 -17024830.377 10 0 61122 64800.00000 0 17203266.747 -11778324.101 -14681580.283 10 0 61122 65700.00000 0 18741548.520 -12412436.014 -12052859.271 10 0 61122 66600.00000 0 19913171.986 -13036580.981 -9189956.835 10 0 61122 67500.00000 0 20705823.090 -13592492.556 -6148632.770 10 0 61122 68400.00000 0 21120590.441 -14022216.008 -2988022.027 10 0 61122 69300.00000 0 21171713.609 -14270722.296 230519.571 10 0 61122 70200.00000 0 20885797.059 -14288405.974 3444605.826 10 0 61122 71100.00000 0 20300525.602 -14033362.368 6592023.652 10 0 61122 72000.00000 0 19462937.605 -13473349.203 9611926.552 10 0 61122 72900.00000 0 18427330.070 -12587351.528 12445995.825 10 0 61122 73800.00000 0 17252884.194 -11366685.545 15039548.346 10 0 61122 74700.00000 0 16001110.917 -9815596.251 17342571.157 10 0 61122 75600.00000 0 14733222.551 -7951324.576 19310664.845 10 0 61122 76500.00000 0 13507538.993 -5803641.315 20905879.635 10 0 61122 77400.00000 0 12377035.032 -3413866.646 22097430.061 10 0 61122 78300.00000 0 11387129.149 -833414.618 22862276.314 10 0 61122 79200.00000 0 10573804.128 1878079.071 23185562.473 10 0 61122 80100.00000 0 9962136.370 4654971.016 23060904.040 10 0 61122 81000.00000 0 9565294.277 7428077.043 22490519.471 10 0 61122 81900.00000 0 9384047.272 10127293.153 21485202.669 10 0 61122 82800.00000 0 9406806.489 12684264.751 20064135.785 10 0 61122 83700.00000 0 9610196.678 15034996.051 18254544.154 10 0 61122 84600.00000 0 9960137.173 17122293.196 16091197.759 10 0 61122 85500.00000 0 10413388.734 18897940.507 13615766.369 10 0 61123 0.00000 0 10919503.398 20324519.268 10876038.527 10 0 61123 900.00000 0 11423097.467 21376793.161 7925015.646 10 0 61123 1800.00000 0 11866352.476 22042599.152 4819900.581 10 0 61123 2700.00000 0 12191640.057 22323207.207 1620994.091 10 0 61123 3600.00000 0 12344158.719 22233129.709 -1609476.409 10 0 61123 4500.00000 0 12274469.987 21799387.471 -4808574.300 10 0 61123 5400.00000 0 11940824.357 21060261.603 -7913892.649 10 0 61123 6300.00000 0 11311175.790 20063582.948 -10864788.964 10 0 61123 7200.00000 0 10364796.269 18864631.056 -13603589.804 10 0 61123 8100.00000 0 9093418.796 17523732.018 -16076739.572 10 0 61123 9000.00000 0 7501857.411 16103657.795 -18235868.863 10 0 61123 9900.00000 0 5608075.382 14666938.651 -20038759.385 10 0 61123 10800.00000 0 3442696.699 13273204.092 -21450184.837 10 0 61123 11700.00000 0 1047980.162 11976666.534 -22442610.000 10 0 61123 12600.00000 0 -1523701.301 10823855.494 -22996733.523 10 0 61123 13500.00000 0 -4211812.071 9851699.007 -23101863.526 10 0 61123 14400.00000 0 -6949953.584 9086033.562 -22756118.886 10 0 61123 15300.00000 0 -9668415.042 8540605.044 -21966452.974 10 0 61123 16200.00000 0 -12296867.392 8216601.630 -20748500.416 10 0 61123 17100.00000 0 -14767087.044 8102736.532 -19126251.220 10 0 61123 18000.00000 0 -17015595.032 8175874.721 -17131560.169 10 0 61123 18900.00000 0 -18986101.368 8402174.515 -14803502.719 10 0 61123 19800.00000 0 -20631653.212 8738693.068 -12187591.561 10 0 61123 20700.00000 0 -21916398.397 9135385.356 -9334870.791 10 0 61123 21600.00000 0 -22816892.634 9537409.930 -6300906.722 10 0 61123 22500.00000 0 -23322898.262 9887642.308 -3144696.228 10 0 61123 23400.00000 0 -23437644.007 10129288.705 72485.199 10 0 61123 24300.00000 0 -23177537.914 10208489.302 3288272.760 10 0 61123 25200.00000 0 -22571348.390 10076801.412 6440415.793 10 0 61123 26100.00000 0 -21658890.174 9693458.572 9467972.349 10 0 61123 27000.00000 0 -20489272.246 9027311.610 12312472.557 10 0 61123 27900.00000 0 -19118782.190 8058371.321 14919029.567 10 0 61123 28800.00000 0 -17608495.897 6778889.261 17237378.214 10 0 61123 29700.00000 0 -16021712.075 5193932.265 19222823.301 10 0 61123 30600.00000 0 -14421317.474 3321427.075 20837081.312 10 0 61123 31500.00000 0 -12867191.036 1191672.903 22049001.325 10 0 61123 32400.00000 0 -11413753.067 -1153658.808 22835153.117 10 0 61123 33300.00000 0 -10107759.366 -3662997.675 23180272.559 10 0 61123 34200.00000 0 -8986430.255 -6276761.983 23077556.628 10 0 61123 35100.00000 0 -8075990.872 -8929585.258 22528802.613 10 0 61123 36000.00000 0 -7390682.665 -11552792.674 21544388.363 10 0 61123 36900.00000 0 -6932287.166 -14077027.702 20143092.820 10 0 61123 37800.00000 0 -6690182.472 -16434922.831 18351758.548 10 0 61123 38700.00000 0 -6641931.301 -18563705.678 16204800.524 10 0 61123 39600.00000 0 -6754377.709 -20407633.463 13743568.201 10 0 61123 40500.00000 0 -6985208.342 -21920154.996 11015570.642 10 0 61123 41400.00000 0 -7284914.413 -23065709.533 8073577.345 10 0 61123 42300.00000 0 -7599073.259 -23821086.046 4974610.246 10 0 61123 43200.00000 0 -7870854.040 -24176284.128 1778845.109 10 0 61123 44100.00000 0 -8043641.752 -24134838.192 -1451557.076 10 0 61123 45000.00000 0 -8063667.687 -23713589.064 -4653665.815 10 0 61123 45900.00000 0 -7882533.256 -22941910.578 -7765019.525 10 0 61123 46800.00000 0 -7459517.798 -21860422.252 -10724861.076 10 0 61123 47700.00000 0 -6763569.628 -20519241.511 -13475344.464 10 0 61123 48600.00000 0 -5774892.780 -18975849.143 -15962686.905 10 0 61123 49500.00000 0 -4486059.065 -17292658.733 -18138241.665 10 0 61123 50400.00000 0 -2902595.556 -15534393.913 -19959468.520 10 0 61123 51300.00000 0 -1043020.332 -13765385.739 -21390781.150 10 0 61123 52200.00000 0 1061676.749 -12046905.917 -22404253.537 10 0 61123 53100.00000 0 3369087.276 -10434649.945 -22980170.698 10 0 61123 54000.00000 0 5826927.482 -8976477.404 -23107412.694 10 0 61123 54900.00000 0 8375006.253 -7710505.171 -22783664.599 10 0 61123 55800.00000 0 10947534.575 -6663633.673 -22015448.967 10 0 61123 56700.00000 0 13475678.639 -5850567.304 -20817981.228 10 0 61123 57600.00000 0 15890248.711 -5273368.482 -19214852.113 10 0 61123 58500.00000 0 18124410.420 -4921561.811 -17237544.899 10 0 61123 59400.00000 0 20116304.681 -4772781.097 -14924798.483 10 0 61123 60300.00000 0 21811466.844 -4793928.860 -12321830.399 10 0 61123 61200.00000 0 23164944.661 -4942796.395 -9479436.534 10 0 61123 62100.00000 0 24143027.907 -5170073.177 -6452986.530 10 0 61123 63000.00000 0 24724519.319 -5421658.392 -3301335.678 10 0 61123 63900.00000 0 24901496.096 -5641175.273 -85675.415 10 0 61123 64800.00000 0 24679532.813 -5772580.996 3131654.663 10 0 61123 65700.00000 0 24077379.175 -5762761.670 6288370.071 10 0 61123 66600.00000 0 23126108.615 -5564003.282 9323436.966 10 0 61123 67500.00000 0 21867775.440 -5136235.349 12178237.550 10 0 61123 68400.00000 0 20353638.131 -4448954.011 14797684.089 10 0 61123 69300.00000 0 18642023.710 -3482745.035 17131261.602 10 0 61123 70200.00000 0 16795922.163 -2230343.954 19133981.022 10 0 61123 71100.00000 0 14880410.339 -697189.648 20767226.518 10 0 61123 72000.00000 0 12960011.033 1098551.677 21999482.675 10 0 61123 72900.00000 0 11096095.152 3126493.715 22806929.358 10 0 61123 73800.00000 0 9344432.704 5345048.827 23173894.296 10 0 61123 74700.00000 0 7752992.203 7702918.069 23093155.572 10 0 61123 75600.00000 0 6360078.041 10140993.348 22566088.513 10 0 61123 76500.00000 0 5192881.819 12594595.813 21602653.709 10 0 61123 77400.00000 0 4266507.200 14995960.739 20221225.312 10 0 61123 78300.00000 0 3583508.846 17276868.723 18448261.188 10 0 61123 79200.00000 0 3133965.358 19371316.349 16317819.071 10 0 61123 80100.00000 0 2896084.374 21218116.956 13870925.607 10 0 61123 81000.00000 0 2837316.105 22763324.030 11154807.923 10 0 61123 81900.00000 0 2915930.211 23962376.010 8222000.214 10 0 61123 82800.00000 0 3082991.227 24781871.801 5129340.708 10 0 61123 83700.00000 0 3284650.296 25200900.894 1936877.058 10 0 61123 84600.00000 0 3464656.842 25211869.992 -1293299.293 10 0 61123 85500.00000 0 3566983.524 24820788.891 -4498267.045 10 0 61124 0.00000 0 3538452.091 24047001.248 -7615512.595 10 0 61124 900.00000 0 3331246.798 22922369.046 -10584167.409 10 0 61124 1800.00000 0 2905206.258 21489944.773 -13346214.997 10 0 61124 2700.00000 0 2229793.540 19802185.235 -15847647.406 10 0 61124 3600.00000 0 1285657.879 17918783.275 -18039542.217 10 0 61124 4500.00000 0 65718.945 15904209.255 -19879038.587 10 0 61124 5400.00000 0 -1424274.784 13825067.232 -21330191.149 10 0 61124 6300.00000 0 -3165739.103 11747378.720 -22364683.758 10 0 61124 7200.00000 0 -5127800.197 9733910.015 -22962388.175 10 0 61124 8100.00000 0 -7268371.341 7841656.813 -23111756.477 10 0 61124 9000.00000 0 -9535714.819 6119592.739 -22810039.680 10 0 61124 9900.00000 0 -11870422.776 4606776.540 -22063328.921 10 0 61124 10800.00000 0 -14207732.894 3330896.877 -20886419.445 10 0 61124 11700.00000 0 -16480080.680 2307314.341 -19302501.367 10 0 61124 12600.00000 0 -18619780.340 1538638.834 -17342684.754 10 0 61124 13500.00000 0 -20561721.165 1014857.199 -15045369.977 10 0 61124 14400.00000 0 -22245966.226 714002.578 -12455477.218 10 0 61124 15300.00000 0 -23620144.750 603333.903 -9623551.823 10 0 61124 16200.00000 0 -24641538.890 640972.589 -6604764.354 10 0 61124 17100.00000 0 -25278778.915 777924.464 -3457826.059 10 0 61124 18000.00000 0 -25513077.814 960399.286 -243841.848 10 0 61124 18900.00000 0 -25338955.900 1132328.300 2974876.381 10 0 61124 19800.00000 0 -24764427.578 1237972.665 6136012.831 10 0 61124 20700.00000 0 -23810644.832 1224512.599 9178444.274 10 0 61124 21600.00000 0 -22511014.468 1044508.588 12043407.475 10 0 61124 22500.00000 0 -20909827.547 658132.018 14675616.240 10 0 61124 23400.00000 0 -19060459.171 35072.690 17024308.055 10 0 61124 24300.00000 0 -17023213.803 -843955.615 19044202.057 10 0 61124 25200.00000 0 -14862905.198 -1986173.613 20696351.906 10 0 61124 26100.00000 0 -12646270.272 -3386202.077 21948879.157 10 0 61124 27000.00000 0 -10439322.446 -5026056.957 22777574.871 10 0 61124 27900.00000 0 -8304752.035 -6875675.154 23166359.349 10 0 61124 28800.00000 0 -6299479.206 -8893950.746 23107592.135 10 0 61124 29700.00000 0 -4472458.780 -11030240.908 22602226.594 10 0 61124 30600.00000 0 -2862826.123 -13226281.795 21659805.738 10 0 61124 31500.00000 0 -1498459.914 -15418437.872 20298298.300 10 0 61124 32400.00000 0 -395020.933 -17540194.236 18543776.525 10 0 61124 33300.00000 0 444492.935 -19524791.005 16429939.696 10 0 61124 34200.00000 0 1029656.109 -21307892.129 13997490.148 10 0 61124 35100.00000 0 1381991.698 -22830178.654 11293371.293 10 0 61124 36000.00000 0 1533839.434 -24039758.408 8369879.984 10 0 61124 36900.00000 0 1526761.237 -24894290.668 5283668.466 10 0 61124 37800.00000 0 1409550.296 -25362735.212 2094653.817 10 0 61124 38700.00000 0 1235926.986 -25426650.143 -1135144.705 10 0 61124 39600.00000 0 1062018.987 -25080981.254 -4342817.751 10 0 61124 40500.00000 0 943733.066 -24334307.020 -7465803.118 10 0 61124 41400.00000 0 934131.457 -23208526.306 -10443122.683 10 0 61124 42300.00000 0 1080926.300 -21737999.932 -13216593.009 10 0 61124 43200.00000 0 1424201.118 -19968180.884 -15731983.898 10 0 61124 44100.00000 0 1994458.900 -17953790.285 -17940100.060 10 0 61124 45000.00000 0 2811082.417 -15756616.147 -19797762.601 10 0 61124 45900.00000 0 3881274.608 -13443028.409 -21268669.374 10 0 61124 46800.00000 0 5199526.036 -11081316.036 -22324115.959 10 0 61124 47700.00000 0 6747633.378 -8738959.653 -22943562.261 10 0 61124 48600.00000 0 8495269.027 -6479955.645 -23115033.297 10 0 61124 49500.00000 0 10401077.904 -4362305.087 -22835346.473 10 0 61124 50400.00000 0 12414254.848 -2435773.367 -22110161.513 10 0 61124 51300.00000 0 14476535.323 -740014.204 -20953853.081 10 0 61124 52200.00000 0 16524514.626 696864.355 -19389209.870 10 0 61124 53100.00000 0 18492196.972 1859233.631 -17446967.567 10 0 61124 54000.00000 0 20313666.400 2744341.146 -15165186.435 10 0 61124 54900.00000 0 21925766.723 3362157.067 -12588487.326 10 0 61124 55800.00000 0 23270677.836 3734680.163 -9767162.651 10 0 61124 56700.00000 0 24298280.656 3894736.050 -6756181.102 10 0 61124 57600.00000 0 24968212.452 3884321.624 -3614106.757 10 0 61124 58500.00000 0 25251527.820 3752568.375 -401954.606 10 0 61124 59400.00000 0 25131897.588 3553412.675 2817994.679 10 0 61124 60300.00000 0 24606297.551 3343072.809 5983397.544 10 0 61124 61200.00000 0 23685160.389 3177439.781 9033044.829 10 0 61124 62100.00000 0 22391986.431 3109491.801 11908031.110 10 0 61124 63000.00000 0 20762431.110 3186840.617 14552874.687 10 0 61124 63900.00000 0 18842908.281 3449511.743 16916568.132 10 0 61124 64800.00000 0 16688767.887 3928050.491 18953541.032 10 0 61124 65700.00000 0 14362123.411 4642031.964 20624518.400 10 0 61124 66600.00000 0 11929418.243 5599036.466 21897260.237 10 0 61124 67500.00000 0 9458830.175 6794132.779 22747169.867 10 0 61124 68400.00000 0 7017619.387 8209891.197 23157760.847 10 0 61124 69300.00000 0 4669527.384 9816926.887 23120974.424 10 0 61124 70200.00000 0 2472332.161 11574952.782 22637341.814 10 0 61124 71100.00000 0 475658.708 13434300.663 21715987.814 10 0 61124 72000.00000 0 -1280865.992 15337850.015 20374474.662 10 0 61124 72900.00000 0 -2769037.986 17223287.366 18638487.481 10 0 61124 73800.00000 0 -3973022.443 19025604.894 16541365.220 10 0 61124 74700.00000 0 -4889781.047 20679736.476 14123483.692 10 0 61124 75600.00000 0 -5528961.882 22123222.790 11431500.104 10 0 61124 76500.00000 0 -5912255.099 23298794.825 8517471.260 10 0 61124 77400.00000 0 -6072239.870 24156767.325 5437860.536 10 0 61124 78300.00000 0 -6050769.784 24657140.599 2252451.417 10 0 61124 79200.00000 0 -5896963.725 24771320.376 -976812.110 10 0 61124 80100.00000 0 -5664886.704 24483380.745 -4187035.762 10 0 61124 81000.00000 0 -5411019.041 23790814.079 -7315611.520 10 0 61124 81900.00000 0 -5191622.218 22704733.470 -10301455.156 10 0 61124 82800.00000 0 -5060114.807 21249516.526 -13086218.708 10 0 61124 83700.00000 0 -5064572.141 19461903.590 -15615452.184 10 0 61124 84600.00000 0 -5245458.438 17389587.033 -17839689.544 10 0 61124 85500.00000 0 -5633690.317 15089350.606 -19715435.654 99